| time (UTC) | temp C | wind direction | speed KPH | gust KPH | rain 1hr cm | rain 24hr cm | rain mn cm | humidity % | barometer mb |
| 20260508083137 | 0 | 288 | 0.0 | 0.0 | 0.00 | 0.00 | 0.00 | 97 | 1017.3 |
| 20260508082632 | 0 | 288 | 0.0 | 0.0 | 0.00 | 0.00 | 0.00 | 97 | 1017.2 |
| 20260508082129 | 0 | 288 | 0.0 | 0.0 | 0.00 | 0.00 | 0.00 | 97 | 1017.4 |
| 20260508081627 | 0 | 288 | 0.0 | 0.0 | 0.00 | 0.00 | 0.00 | 97 | 1017.4 |
| 20260508081123 | 0 | 288 | 0.0 | 0.0 | 0.00 | 0.00 | 0.00 | 97 | 1017.3 |
| 20260508080621 | 0 | 288 | 0.0 | 0.0 | 0.00 | 0.00 | 0.00 | 97 | 1017.7 |
| 20260508080119 | 0 | 288 | 0.0 | 0.0 | 0.00 | 0.00 | 0.00 | 97 | 1017.4 |
| 20260508075615 | 0 | 288 | 0.0 | 0.0 | 0.00 | 0.00 | 0.00 | 97 | 1017.4 |
| 20260508075112 | 0 | 288 | 0.0 | 0.0 | 0.00 | 0.00 | 0.00 | 97 | 1017.4 |
| 20260508074610 | 0 | 288 | 0.0 | 0.0 | 0.00 | 0.00 | 0.00 | 97 | 1017.4 |
| 20260508074107 | 0 | 288 | 0.0 | 0.0 | 0.00 | 0.00 | 0.00 | 97 | 1017.2 |
| 20260508073604 | 0 | 288 | 0.0 | 0.0 | 0.00 | 0.00 | 0.00 | 97 | 1017.2 |
| 20260508073102 | 0 | 288 | 0.0 | 0.0 | 0.00 | 0.00 | 0.00 | 97 | 1017.2 |
| 20260508072556 | 0 | 288 | 0.0 | 0.0 | 0.00 | 0.00 | 0.00 | 96 | 1017.2 |
| 20260508072054 | 0 | 288 | 0.0 | 0.0 | 0.00 | 0.00 | 0.00 | 96 | 1017.2 |
| 20260508071552 | 1 | 288 | 0.0 | 0.0 | 0.00 | 0.00 | 0.00 | 96 | 1017.3 |
| 20260508071050 | 1 | 288 | 0.0 | 0.0 | 0.00 | 0.00 | 0.00 | 96 | 1017.1 |
| 20260508070547 | 1 | 288 | 0.0 | 0.0 | 0.00 | 0.00 | 0.00 | 96 | 1017.2 |
| 20260508070045 | 1 | 288 | 0.0 | 0.0 | 0.00 | 0.00 | 0.00 | 95 | 1017.1 |
| 20260508065542 | 1 | 288 | 0.0 | 0.0 | 0.00 | 0.00 | 0.00 | 95 | 1017.2 |
| 20260508065041 | 1 | 288 | 0.0 | 0.0 | 0.00 | 0.00 | 0.00 | 95 | 1017.1 |
| 20260508064538 | 1 | 288 | 0.0 | 0.0 | 0.00 | 0.00 | 0.00 | 95 | 1017.2 |
| 20260508064036 | 1 | 288 | 0.0 | 0.0 | 0.00 | 0.00 | 0.00 | 95 | 1017.4 |
| 20260508063533 | 1 | 288 | 0.0 | 0.0 | 0.00 | 0.00 | 0.00 | 94 | 1017.3 |
| 20260508063031 | 1 | 288 | 0.0 | 0.0 | 0.00 | 0.00 | 0.00 | 94 | 1017.3 |
| 20260508062528 | 2 | 288 | 0.0 | 0.0 | 0.00 | 0.00 | 0.00 | 94 | 1017.3 |
| 20260508062024 | 2 | 288 | 0.0 | 0.0 | 0.00 | 0.00 | 0.00 | 94 | 1017.4 |
| 20260508061522 | 2 | 288 | 0.0 | 0.0 | 0.00 | 0.00 | 0.00 | 94 | 1017.7 |
| 20260508061019 | 3 | 288 | 0.0 | 0.0 | 0.00 | 0.00 | 0.00 | 94 | 1017.5 |
| 20260508060516 | 3 | 288 | 0.0 | 0.0 | 0.00 | 0.00 | 0.00 | 94 | 1017.4 |
| 20260508060013 | 3 | 288 | 0.0 | 0.0 | 0.00 | 0.00 | 0.00 | 94 | 1017.2 |
| 20260508055509 | 3 | 288 | 0.0 | 0.0 | 0.00 | 0.00 | 0.00 | 93 | 1017.2 |
| 20260508055006 | 3 | 288 | 0.0 | 0.0 | 0.00 | 0.00 | 0.00 | 94 | 1017.1 |
| 20260508054502 | 3 | 288 | 0.0 | 0.0 | 0.00 | 0.00 | 0.00 | 93 | 1017.0 |
| 20260508053959 | 3 | 288 | 0.0 | 0.0 | 0.00 | 0.00 | 0.00 | 93 | 1017.1 |
| 20260508053456 | 3 | 288 | 0.0 | 0.0 | 0.00 | 0.00 | 0.00 | 92 | 1016.8 |
| 20260508052954 | 3 | 288 | 0.0 | 0.0 | 0.00 | 0.00 | 0.00 | 92 | 1016.9 |
| 20260508052451 | 3 | 288 | 0.0 | 0.0 | 0.00 | 0.00 | 0.00 | 91 | 1016.7 |
| 20260508051948 | 3 | 288 | 0.0 | 0.0 | 0.00 | 0.00 | 0.00 | 90 | 1016.7 |
| 20260508051443 | 3 | 288 | 0.0 | 0.0 | 0.00 | 0.00 | 0.00 | 92 | 1016.8 |
| 20260508050939 | 3 | 288 | 0.0 | 0.0 | 0.00 | 0.00 | 0.00 | 92 | 1016.7 |
| 20260508050436 | 3 | 288 | 0.0 | 0.0 | 0.00 | 0.00 | 0.00 | 91 | 1016.8 |
| 20260508045933 | 3 | 288 | 0.0 | 0.0 | 0.00 | 0.00 | 0.00 | 90 | 1016.7 |
| 20260508045430 | 3 | 288 | 0.0 | 0.0 | 0.00 | 0.00 | 0.00 | 89 | 1016.6 |
| 20260508044928 | 3 | 288 | 0.0 | 0.0 | 0.00 | 0.00 | 0.00 | 88 | 1016.8 |
| 20260508044425 | 3 | 288 | 0.0 | 0.0 | 0.00 | 0.00 | 0.00 | 87 | 1016.6 |
| 20260508043920 | 3 | 288 | 0.0 | 0.0 | 0.00 | 0.00 | 0.00 | 88 | 1016.8 |
| 20260508043418 | 3 | 288 | 0.0 | 0.0 | 0.00 | 0.00 | 0.00 | 89 | 1016.7 |
| 20260508042914 | 4 | 288 | 0.0 | 0.0 | 0.00 | 0.00 | 0.00 | 88 | 1016.7 |
| 20260508042412 | 4 | 288 | 0.0 | 0.0 | 0.00 | 0.00 | 0.00 | 88 | 1016.8 |
| 20260508041908 | 4 | 288 | 0.0 | 0.0 | 0.00 | 0.00 | 0.00 | 89 | 1016.7 |
| 20260508041405 | 4 | 288 | 0.0 | 0.0 | 0.00 | 0.00 | 0.00 | 88 | 1016.6 |
| 20260508040901 | 4 | 288 | 0.0 | 0.0 | 0.00 | 0.00 | 0.00 | 88 | 1016.6 |
| 20260508040358 | 4 | 288 | 0.0 | 0.0 | 0.00 | 0.00 | 0.00 | 88 | 1016.6 |
| 20260508035856 | 4 | 288 | 0.0 | 0.0 | 0.00 | 0.00 | 0.00 | 88 | 1016.4 |
| 20260508035353 | 4 | 288 | 0.0 | 0.0 | 0.00 | 0.00 | 0.00 | 87 | 1016.6 |
| 20260508034850 | 4 | 288 | 0.0 | 0.0 | 0.00 | 0.00 | 0.00 | 88 | 1016.5 |
| 20260508034347 | 4 | 288 | 0.0 | 0.0 | 0.00 | 0.00 | 0.00 | 88 | 1016.4 |
| 20260508033844 | 5 | 288 | 0.0 | 0.0 | 0.00 | 0.00 | 0.00 | 87 | 1016.6 |
| 20260508033342 | 5 | 288 | 0.0 | 0.0 | 0.00 | 0.00 | 0.00 | 85 | 1016.7 |
| 20260508032839 | 5 | 288 | 0.0 | 0.0 | 0.00 | 0.00 | 0.00 | 85 | 1016.2 |
| 20260508032337 | 5 | 288 | 0.0 | 0.0 | 0.00 | 0.00 | 0.00 | 85 | 1016.4 |
| 20260508031833 | 5 | 288 | 0.0 | 0.0 | 0.00 | 0.00 | 0.00 | 84 | 1016.3 |
| 20260508031330 | 5 | 288 | 0.0 | 0.0 | 0.00 | 0.00 | 0.00 | 84 | 1016.2 |
| 20260508030826 | 5 | 288 | 0.0 | 0.0 | 0.00 | 0.00 | 0.00 | 84 | 1016.2 |
| 20260508030319 | 5 | 288 | 0.0 | 0.0 | 0.00 | 0.00 | 0.00 | 83 | 1016.2 |
| 20260508025815 | 5 | 288 | 0.0 | 0.0 | 0.00 | 0.00 | 0.00 | 83 | 1016.1 |
| 20260508025312 | 6 | 288 | 0.0 | 0.0 | 0.00 | 0.00 | 0.00 | 82 | 1016.2 |
| 20260508024809 | 6 | 288 | 0.0 | 0.0 | 0.00 | 0.00 | 0.00 | 82 | 1015.9 |
| 20260508024305 | 6 | 288 | 0.0 | 0.0 | 0.00 | 0.00 | 0.00 | 81 | 1015.8 |
| 20260508023802 | 6 | 288 | 0.0 | 0.0 | 0.00 | 0.00 | 0.00 | 82 | 1015.9 |
| 20260508023259 | 6 | 288 | 0.0 | 0.0 | 0.00 | 0.00 | 0.00 | 82 | 1015.8 |
| 20260508022755 | 6 | 288 | 0.0 | 0.0 | 0.00 | 0.00 | 0.00 | 82 | 1015.8 |
| 20260508022251 | 6 | 288 | 0.0 | 0.0 | 0.00 | 0.00 | 0.00 | 80 | 1015.6 |
| 20260508021749 | 6 | 288 | 0.0 | 0.0 | 0.00 | 0.00 | 0.00 | 79 | 1015.4 |
| 20260508021244 | 7 | 288 | 0.0 | 0.0 | 0.00 | 0.00 | 0.00 | 80 | 1015.4 |
| 20260508020741 | 7 | 288 | 0.0 | 0.0 | 0.00 | 0.00 | 0.00 | 80 | 1015.2 |
| 20260508020239 | 7 | 288 | 0.0 | 0.0 | 0.00 | 0.00 | 0.00 | 77 | 1015.3 |
| 20260508015736 | 7 | 288 | 0.0 | 0.0 | 0.00 | 0.00 | 0.00 | 78 | 1015.1 |
| 20260508015233 | 7 | 288 | 0.0 | 0.0 | 0.00 | 0.00 | 0.00 | 79 | 1015.2 |
| 20260508014730 | 7 | 288 | 0.0 | 0.0 | 0.00 | 0.00 | 0.00 | 78 | 1015.1 |
| 20260508014226 | 7 | 288 | 0.0 | 0.0 | 0.00 | 0.00 | 0.00 | 78 | 1015.1 |
| 20260508013722 | 7 | 288 | 0.0 | 0.0 | 0.00 | 0.00 | 0.00 | 76 | 1015.1 |
| 20260508013218 | 7 | 288 | 0.0 | 0.0 | 0.00 | 0.00 | 0.00 | 77 | 1015.0 |
| 20260508012716 | 7 | 288 | 0.0 | 0.0 | 0.00 | 0.00 | 0.00 | 76 | 1014.9 |
| 20260508012212 | 8 | 288 | 0.0 | 1.6 | 0.00 | 0.00 | 0.00 | 75 | 1014.7 |
| 20260508011711 | 8 | 288 | 0.0 | 0.0 | 0.00 | 0.00 | 0.00 | 73 | 1014.7 |
| 20260508011208 | 8 | 288 | 0.0 | 0.0 | 0.00 | 0.00 | 0.00 | 76 | 1014.7 |
| 20260508010704 | 8 | 288 | 0.0 | 1.6 | 0.00 | 0.00 | 0.00 | 77 | 1014.8 |
| 20260508010203 | 8 | 288 | 0.0 | 0.0 | 0.00 | 0.00 | 0.00 | 78 | 1014.7 |
| 20260508005700 | 8 | 288 | 0.0 | 1.6 | 0.00 | 0.00 | 0.00 | 77 | 1014.4 |
| 20260508005156 | 8 | 288 | 0.0 | 1.6 | 0.00 | 0.00 | 0.00 | 79 | 1014.4 |
| 20260508004652 | 8 | 288 | 1.6 | 1.6 | 0.00 | 0.00 | 0.00 | 79 | 1014.3 |
| 20260508004148 | 8 | 288 | 0.0 | 1.6 | 0.00 | 0.00 | 0.00 | 79 | 1014.2 |
| 20260508003645 | 9 | 288 | 0.0 | 1.6 | 0.00 | 0.00 | 0.00 | 76 | 1014.2 |
| 20260508003137 | 9 | 288 | 0.0 | 0.0 | 0.00 | 0.00 | 0.00 | 76 | 1014.2 |
| 20260508002633 | 10 | 288 | 0.0 | 0.0 | 0.00 | 0.00 | 0.00 | 71 | 1014.2 |
| 20260508002131 | 10 | 288 | 0.0 | 1.6 | 0.00 | 0.00 | 0.00 | 71 | 1014.1 |
| 20260508001626 | 10 | 288 | 1.6 | 1.6 | 0.00 | 0.00 | 0.00 | 69 | 1014.0 |
| 20260508001122 | 10 | 288 | 0.0 | 1.6 | 0.00 | 0.00 | 0.00 | 68 | 1014.0 |
| 20260508000618 | 11 | 288 | 0.0 | 1.6 | 0.00 | 0.00 | 0.00 | 68 | 1014.0 |
| 20260508000116 | 11 | 288 | 1.6 | 1.6 | 0.00 | 0.00 | 0.00 | 65 | 1014.0 |
| 20260507235612 | 11 | 288 | 1.6 | 3.2 | 0.00 | 0.00 | 0.00 | 65 | 1013.9 |
| 20260507235110 | 11 | 288 | 1.6 | 3.2 | 0.00 | 0.00 | 0.00 | 65 | 1013.7 |
| 20260507234606 | 11 | 309 | 1.6 | 3.2 | 0.00 | 0.00 | 0.00 | 64 | 1013.8 |
| 20260507234103 | 12 | 309 | 3.2 | 4.8 | 0.00 | 0.00 | 0.00 | 62 | 1013.8 |
| 20260507233600 | 12 | 309 | 1.6 | 4.8 | 0.00 | 0.00 | 0.00 | 61 | 1013.9 |
| 20260507233059 | 12 | 309 | 1.6 | 3.2 | 0.00 | 0.00 | 0.00 | 61 | 1013.8 |
| 20260507232554 | 13 | 291 | 4.8 | 6.4 | 0.00 | 0.00 | 0.00 | 59 | 1013.7 |
| 20260507232052 | 12 | 295 | 4.8 | 9.7 | 0.00 | 0.00 | 0.00 | 58 | 1013.8 |
| 20260507231548 | 13 | 290 | 6.4 | 9.7 | 0.00 | 0.00 | 0.00 | 58 | 1013.7 |
| 20260507231045 | 13 | 329 | 3.2 | 9.7 | 0.00 | 0.00 | 0.00 | 60 | 1013.5 |
| 20260507230541 | 13 | 289 | 6.4 | 9.7 | 0.00 | 0.00 | 0.00 | 60 | 1013.5 |
| 20260507230038 | 13 | 295 | 4.8 | 6.4 | 0.00 | 0.00 | 0.00 | 60 | 1013.4 |
| 20260507225533 | 13 | 295 | 3.2 | 4.8 | 0.00 | 0.00 | 0.00 | 60 | 1013.4 |
| 20260507225029 | 12 | 302 | 1.6 | 9.7 | 0.00 | 0.00 | 0.00 | 62 | 1013.2 |
| 20260507224525 | 12 | 301 | 3.2 | 6.4 | 0.00 | 0.00 | 0.00 | 60 | 1013.3 |
| 20260507224022 | 13 | 296 | 6.4 | 6.4 | 0.00 | 0.00 | 0.00 | 59 | 1013.2 |
| 20260507223518 | 13 | 299 | 4.8 | 6.4 | 0.00 | 0.00 | 0.00 | 60 | 1013.1 |
| 20260507223016 | 13 | 294 | 1.6 | 3.2 | 0.00 | 0.00 | 0.00 | 61 | 1013.3 |
| 20260507222513 | 13 | 291 | 3.2 | 3.2 | 0.00 | 0.00 | 0.00 | 62 | 1013.2 |
| 20260507222008 | 13 | 296 | 4.8 | 9.7 | 0.00 | 0.00 | 0.00 | 58 | 1013.2 |
| 20260507221505 | 13 | 295 | 1.6 | 4.8 | 0.00 | 0.00 | 0.00 | 60 | 1012.9 |
| 20260507221002 | 15 | 295 | 1.6 | 3.2 | 0.00 | 0.00 | 0.00 | 59 | 1012.8 |
| 20260507220459 | 15 | 295 | 3.2 | 4.8 | 0.00 | 0.00 | 0.00 | 54 | 1012.9 |
| 20260507215956 | 16 | 295 | 4.8 | 4.8 | 0.00 | 0.00 | 0.00 | 54 | 1012.9 |
| 20260507215452 | 15 | 292 | 3.2 | 6.4 | 0.00 | 0.00 | 0.00 | 56 | 1012.6 |
| 20260507214950 | 15 | 290 | 6.4 | 11.3 | 0.00 | 0.00 | 0.00 | 56 | 1012.9 |
| 20260507214447 | 16 | 284 | 4.8 | 4.8 | 0.00 | 0.00 | 0.00 | 54 | 1012.6 |
| 20260507213943 | 15 | 295 | 3.2 | 4.8 | 0.00 | 0.00 | 0.00 | 57 | 1012.7 |
| 20260507213439 | 16 | 310 | 6.4 | 6.4 | 0.00 | 0.00 | 0.00 | 53 | 1012.6 |
| 20260507212937 | 16 | 306 | 4.8 | 6.4 | 0.00 | 0.00 | 0.00 | 55 | 1012.6 |
| 20260507212432 | 16 | 304 | 4.8 | 6.4 | 0.00 | 0.00 | 0.00 | 51 | 1012.5 |
| 20260507211930 | 15 | 303 | 3.2 | 6.4 | 0.00 | 0.00 | 0.00 | 57 | 1012.6 |
| 20260507211426 | 16 | 300 | 8.0 | 11.3 | 0.00 | 0.00 | 0.00 | 53 | 1012.4 |
| 20260507210923 | 16 | 305 | 4.8 | 11.3 | 0.00 | 0.00 | 0.00 | 55 | 1012.4 |
| 20260507210420 | 15 | 282 | 4.8 | 4.8 | 0.00 | 0.00 | 0.00 | 60 | 1012.4 |
| 20260507205916 | 15 | 320 | 3.2 | 4.8 | 0.00 | 0.00 | 0.00 | 58 | 1012.5 |
| 20260507205414 | 15 | 263 | 11.3 | 12.9 | 0.00 | 0.00 | 0.00 | 56 | 1012.6 |
| 20260507204910 | 15 | 302 | 4.8 | 9.7 | 0.00 | 0.00 | 0.00 | 60 | 1012.3 |
| 20260507204406 | 15 | 303 | 4.8 | 9.7 | 0.00 | 0.00 | 0.00 | 58 | 1012.5 |
| 20260507203904 | 15 | 291 | 6.4 | 14.5 | 0.00 | 0.00 | 0.00 | 58 | 1012.4 |
| 20260507203402 | 15 | 302 | 8.0 | 20.9 | 0.00 | 0.00 | 0.00 | 57 | 1012.5 |
| 20260507202858 | 15 | 287 | 12.9 | 16.1 | 0.00 | 0.00 | 0.00 | 59 | 1012.6 |
| 20260507202354 | 15 | 316 | 8.0 | 16.1 | 0.00 | 0.00 | 0.00 | 58 | 1012.7 |
| 20260507201850 | 15 | 288 | 4.8 | 11.3 | 0.00 | 0.00 | 0.00 | 60 | 1012.5 |
| 20260507201345 | 15 | 301 | 9.7 | 20.9 | 0.00 | 0.00 | 0.00 | 62 | 1012.5 |
| 20260507200842 | 15 | 281 | 4.8 | 16.1 | 0.00 | 0.00 | 0.00 | 61 | 1012.3 |
| 20260507200338 | 16 | 307 | 4.8 | 14.5 | 0.00 | 0.00 | 0.00 | 63 | 1012.5 |
| 20260507195834 | 16 | 303 | 3.2 | 12.9 | 0.00 | 0.00 | 0.00 | 64 | 1012.4 |
| 20260507195332 | 16 | 313 | 4.8 | 17.7 | 0.00 | 0.00 | 0.00 | 61 | 1012.4 |
| 20260507194829 | 15 | 303 | 1.6 | 9.7 | 0.00 | 0.00 | 0.00 | 62 | 1012.5 |
| 20260507194325 | 14 | 293 | 3.2 | 4.8 | 0.00 | 0.00 | 0.00 | 65 | 1012.6 |
| 20260507193822 | 14 | 294 | 3.2 | 6.4 | 0.00 | 0.00 | 0.00 | 66 | 1012.6 |
| 20260507193319 | 15 | 315 | 3.2 | 9.7 | 0.00 | 0.00 | 0.00 | 62 | 1012.8 |
| 20260507192814 | 14 | 288 | 3.2 | 6.4 | 0.00 | 0.00 | 0.00 | 67 | 1012.7 |
| 20260507192312 | 16 | 307 | 3.2 | 11.3 | 0.00 | 0.00 | 0.00 | 65 | 1012.7 |
| 20260507191808 | 15 | 284 | 3.2 | 9.7 | 0.00 | 0.00 | 0.00 | 62 | 1013.1 |
| 20260507191304 | 15 | 292 | 6.4 | 6.4 | 0.00 | 0.00 | 0.00 | 63 | 1013.1 |
| 20260507190801 | 14 | 277 | 6.4 | 12.9 | 0.00 | 0.00 | 0.00 | 63 | 1012.9 |
| 20260507190300 | 15 | 302 | 4.8 | 9.7 | 0.00 | 0.00 | 0.00 | 65 | 1012.8 |
| 20260507185758 | 15 | 289 | 1.6 | 6.4 | 0.00 | 0.00 | 0.00 | 62 | 1013.1 |
| 20260507185254 | 13 | 323 | 3.2 | 11.3 | 0.00 | 0.00 | 0.00 | 68 | 1013.4 |
| 20260507184752 | 13 | 310 | 1.6 | 6.4 | 0.00 | 0.00 | 0.00 | 69 | 1013.4 |
| 20260507184250 | 13 | 292 | 3.2 | 9.7 | 0.00 | 0.00 | 0.00 | 67 | 1013.4 |
| 20260507183747 | 12 | 289 | 3.2 | 4.8 | 0.00 | 0.00 | 0.00 | 68 | 1013.1 |
| 20260507183244 | 13 | 297 | 1.6 | 9.7 | 0.00 | 0.00 | 0.00 | 69 | 1013.1 |
| 20260507182742 | 13 | 296 | 3.2 | 4.8 | 0.00 | 0.00 | 0.00 | 67 | 1012.8 |
| 20260507182241 | 13 | 294 | 3.2 | 6.4 | 0.00 | 0.00 | 0.00 | 71 | 1013.1 |
| 20260507181739 | 13 | 294 | 3.2 | 6.4 | 0.00 | 0.00 | 0.00 | 72 | 1013.2 |
| 20260507181235 | 13 | 296 | 3.2 | 11.3 | 0.00 | 0.00 | 0.00 | 72 | 1012.8 |
| 20260507180732 | 13 | 291 | 3.2 | 6.4 | 0.00 | 0.00 | 0.00 | 73 | 1013.1 |
| 20260507180229 | 13 | 274 | 4.8 | 11.3 | 0.00 | 0.00 | 0.00 | 70 | 1013.1 |
| 20260507175724 | 13 | 297 | 3.2 | 12.9 | 0.00 | 0.00 | 0.00 | 70 | 1012.9 |
| 20260507175221 | 13 | 284 | 4.8 | 4.8 | 0.00 | 0.00 | 0.00 | 74 | 1013.1 |
| 20260507174719 | 13 | 287 | 1.6 | 6.4 | 0.00 | 0.00 | 0.00 | 72 | 1013.2 |
| 20260507174217 | 13 | 295 | 4.8 | 11.3 | 0.00 | 0.00 | 0.00 | 73 | 1013.1 |
| 20260507173715 | 13 | 293 | 3.2 | 4.8 | 0.00 | 0.00 | 0.00 | 71 | 1013.1 |
| 20260507173211 | 13 | 268 | 6.4 | 6.4 | 0.00 | 0.00 | 0.00 | 72 | 1013.1 |
| 20260507172708 | 14 | 286 | 4.8 | 9.7 | 0.00 | 0.00 | 0.00 | 72 | 1013.2 |
| 20260507172204 | 13 | 271 | 6.4 | 11.3 | 0.00 | 0.00 | 0.00 | 74 | 1013.5 |
| 20260507171704 | 13 | 277 | 1.6 | 4.8 | 0.00 | 0.00 | 0.00 | 76 | 1013.4 |
| 20260507171202 | 13 | 331 | 1.6 | 4.8 | 0.00 | 0.00 | 0.00 | 71 | 1013.3 |
| 20260507170658 | 12 | 288 | 1.6 | 1.6 | 0.00 | 0.00 | 0.00 | 73 | 1013.3 |
| 20260507170156 | 12 | 289 | 4.8 | 6.4 | 0.00 | 0.00 | 0.00 | 78 | 1013.4 |
| 20260507165651 | 12 | 288 | 4.8 | 4.8 | 0.00 | 0.00 | 0.00 | 78 | 1013.5 |
| 20260507165148 | 11 | 288 | 0.0 | 1.6 | 0.00 | 0.00 | 0.00 | 79 | 1013.6 |
| 20260507164644 | 11 | 288 | 0.0 | 1.6 | 0.00 | 0.00 | 0.00 | 78 | 1013.8 |
| 20260507164141 | 11 | 288 | 1.6 | 3.2 | 0.00 | 0.00 | 0.00 | 78 | 1013.9 |
| 20260507163638 | 11 | 288 | 1.6 | 3.2 | 0.00 | 0.00 | 0.00 | 79 | 1013.9 |
| 20260507163136 | 11 | 288 | 3.2 | 4.8 | 0.00 | 0.00 | 0.00 | 77 | 1013.9 |
| 20260507162632 | 11 | 288 | 1.6 | 4.8 | 0.00 | 0.00 | 0.00 | 78 | 1013.9 |
| 20260507162128 | 11 | 296 | 4.8 | 6.4 | 0.00 | 0.00 | 0.00 | 78 | 1013.9 |
| 20260507161624 | 11 | 288 | 3.2 | 3.2 | 0.00 | 0.00 | 0.00 | 78 | 1013.9 |
| 20260507161121 | 11 | 288 | 4.8 | 4.8 | 0.00 | 0.00 | 0.00 | 78 | 1013.9 |
| 20260507160617 | 10 | 288 | 4.8 | 6.4 | 0.00 | 0.00 | 0.00 | 78 | 1013.9 |
| 20260507160114 | 11 | 282 | 4.8 | 6.4 | 0.00 | 0.00 | 0.00 | 77 | 1014.0 |
| 20260507155609 | 11 | 270 | 1.6 | 3.2 | 0.00 | 0.00 | 0.00 | 79 | 1014.1 |
| 20260507155107 | 10 | 270 | 3.2 | 3.2 | 0.00 | 0.00 | 0.00 | 83 | 1014.4 |
| 20260507154603 | 10 | 289 | 1.6 | 4.8 | 0.00 | 0.00 | 0.00 | 83 | 1014.2 |
| 20260507154100 | 10 | 289 | 3.2 | 6.4 | 0.00 | 0.00 | 0.00 | 81 | 1014.1 |
| 20260507153557 | 11 | 273 | 3.2 | 3.2 | 0.00 | 0.00 | 0.00 | 81 | 1014.1 |
| 20260507153054 | 10 | 273 | 1.6 | 3.2 | 0.00 | 0.00 | 0.00 | 83 | 1014.3 |
| 20260507152550 | 10 | 268 | 3.2 | 6.4 | 0.00 | 0.00 | 0.00 | 84 | 1014.2 |
| 20260507152046 | 10 | 287 | 3.2 | 6.4 | 0.00 | 0.00 | 0.00 | 82 | 1014.3 |
| 20260507151542 | 9 | 287 | 3.2 | 4.8 | 0.00 | 0.00 | 0.00 | 86 | 1014.2 |
| 20260507151039 | 9 | 287 | 3.2 | 3.2 | 0.00 | 0.00 | 0.00 | 86 | 1014.6 |
| 20260507150536 | 10 | 287 | 1.6 | 3.2 | 0.00 | 0.00 | 0.00 | 87 | 1014.4 |
| 20260507150033 | 9 | 287 | 3.2 | 4.8 | 0.00 | 0.00 | 0.00 | 86 | 1014.6 |
| 20260507145527 | 9 | 286 | 3.2 | 4.8 | 0.00 | 0.00 | 0.00 | 87 | 1014.4 |
| 20260507145026 | 9 | 285 | 3.2 | 4.8 | 0.00 | 0.00 | 0.00 | 86 | 1014.3 |
| 20260507144522 | 9 | 285 | 1.6 | 1.6 | 0.00 | 0.00 | 0.00 | 88 | 1014.6 |
| 20260507144020 | 9 | 285 | 3.2 | 4.8 | 0.00 | 0.00 | 0.00 | 86 | 1014.6 |
| 20260507143517 | 9 | 285 | 3.2 | 4.8 | 0.00 | 0.00 | 0.00 | 86 | 1014.3 |
| 20260507143014 | 9 | 285 | 1.6 | 1.6 | 0.00 | 0.00 | 0.00 | 88 | 1014.6 |
| 20260507142509 | 9 | 285 | 0.0 | 1.6 | 0.00 | 0.00 | 0.00 | 88 | 1014.6 |
| 20260507142007 | 9 | 285 | 0.0 | 1.6 | 0.00 | 0.00 | 0.00 | 88 | 1014.8 |
| 20260507141502 | 9 | 285 | 1.6 | 1.6 | 0.00 | 0.00 | 0.00 | 88 | 1014.7 |
| 20260507140959 | 9 | 285 | 1.6 | 3.2 | 0.00 | 0.00 | 0.00 | 88 | 1014.6 |
| 20260507140456 | 9 | 285 | 0.0 | 3.2 | 0.00 | 0.00 | 0.00 | 90 | 1014.4 |
| 20260507135953 | 9 | 285 | 1.6 | 1.6 | 0.00 | 0.00 | 0.00 | 90 | 1014.9 |
| 20260507135450 | 8 | 285 | 0.0 | 1.6 | 0.00 | 0.00 | 0.00 | 91 | 1014.9 |
| 20260507134947 | 8 | 285 | 1.6 | 1.6 | 0.00 | 0.00 | 0.00 | 91 | 1014.8 |
| 20260507134443 | 9 | 285 | 1.6 | 1.6 | 0.00 | 0.00 | 0.00 | 90 | 1014.8 |
| 20260507133935 | 8 | 285 | 0.0 | 1.6 | 0.00 | 0.00 | 0.00 | 92 | 1015.0 |
| 20260507133431 | 8 | 285 | 0.0 | 1.6 | 0.00 | 0.00 | 0.00 | 93 | 1015.0 |
| 20260507132929 | 8 | 285 | 1.6 | 1.6 | 0.00 | 0.00 | 0.00 | 91 | 1015.0 |
| 20260507132425 | 8 | 285 | 0.0 | 1.6 | 0.00 | 0.00 | 0.00 | 93 | 1015.0 |
| 20260507131921 | 8 | 285 | 3.2 | 4.8 | 0.00 | 0.00 | 0.00 | 91 | 1015.0 |
| 20260507131419 | 8 | 285 | 0.0 | 4.8 | 0.00 | 0.00 | 0.00 | 93 | 1014.9 |
| 20260507130916 | 8 | 285 | 1.6 | 1.6 | 0.00 | 0.00 | 0.00 | 92 | 1014.9 |
| 20260507130413 | 8 | 285 | 1.6 | 3.2 | 0.00 | 0.00 | 0.00 | 91 | 1015.1 |
| 20260507125912 | 8 | 285 | 0.0 | 1.6 | 0.00 | 0.00 | 0.00 | 92 | 1015.1 |
| 20260507125409 | 8 | 285 | 1.6 | 3.2 | 0.00 | 0.00 | 0.00 | 92 | 1014.8 |
| 20260507124906 | 8 | 285 | 1.6 | 3.2 | 0.00 | 0.00 | 0.00 | 92 | 1014.7 |
| 20260507124402 | 8 | 285 | 1.6 | 1.6 | 0.00 | 0.00 | 0.00 | 92 | 1014.8 |
| 20260507123901 | 8 | 285 | 0.0 | 1.6 | 0.00 | 0.00 | 0.00 | 93 | 1014.8 |
| 20260507123357 | 8 | 285 | 1.6 | 1.6 | 0.00 | 0.00 | 0.00 | 94 | 1014.8 |
| 20260507122854 | 9 | 283 | 0.0 | 1.6 | 0.00 | 0.00 | 0.00 | 94 | 1014.9 |
| 20260507122349 | 8 | 283 | 1.6 | 3.2 | 0.00 | 0.00 | 0.00 | 93 | 1014.6 |
| 20260507121846 | 8 | 283 | 0.0 | 1.6 | 0.00 | 0.00 | 0.00 | 95 | 1014.4 |
| 20260507121341 | 8 | 283 | 1.6 | 4.8 | 0.00 | 0.00 | 0.00 | 94 | 1014.7 |
| 20260507120838 | 8 | 283 | 0.0 | 1.6 | 0.00 | 0.00 | 0.00 | 96 | 1014.8 |
| 20260507120334 | 8 | 283 | 0.0 | 1.6 | 0.00 | 0.00 | 0.00 | 96 | 1014.6 |
| 20260507115831 | 8 | 281 | 1.6 | 1.6 | 0.00 | 0.00 | 0.00 | 96 | 1014.8 |
| 20260507115327 | 8 | 281 | 0.0 | 1.6 | 0.00 | 0.00 | 0.00 | 96 | 1014.7 |
| 20260507114822 | 8 | 282 | 0.0 | 1.6 | 0.00 | 0.00 | 0.00 | 97 | 1014.6 |
| 20260507114320 | 9 | 281 | 0.0 | 1.6 | 0.00 | 0.00 | 0.00 | 97 | 1014.7 |
| 20260507113817 | 9 | 282 | 3.2 | 6.4 | 0.00 | 0.00 | 0.00 | 97 | 1014.6 |
| 20260507113314 | 9 | 277 | 0.0 | 1.6 | 0.00 | 0.00 | 0.00 | 98 | 1014.3 |
| 20260507112812 | 9 | 277 | 3.2 | 3.2 | 0.00 | 0.00 | 0.00 | 98 | 1014.6 |
| 20260507112308 | 9 | 277 | 1.6 | 3.2 | 0.00 | 0.00 | 0.00 | 98 | 1014.6 |
| 20260507111807 | 9 | 277 | 0.0 | 0.0 | 0.00 | 0.00 | 0.00 | 98 | 1014.6 |
| 20260507111303 | 9 | 277 | 1.6 | 1.6 | 0.00 | 0.00 | 0.00 | 98 | 1014.2 |
| 20260507110759 | 9 | 277 | 0.0 | 0.0 | 0.00 | 0.00 | 0.00 | 98 | 1013.8 |
| 20260507110255 | 9 | 277 | 0.0 | 1.6 | 0.00 | 0.00 | 0.00 | 98 | 1014.2 |
| 20260507105752 | 9 | 277 | 1.6 | 1.6 | 0.00 | 0.00 | 0.00 | 98 | 1013.9 |
| 20260507105248 | 9 | 277 | 0.0 | 1.6 | 0.00 | 0.00 | 0.00 | 98 | 1013.9 |
| 20260507104746 | 9 | 277 | 0.0 | 1.6 | 0.00 | 0.00 | 0.00 | 98 | 1013.8 |
| 20260507104242 | 10 | 277 | 0.0 | 1.6 | 0.00 | 0.00 | 0.00 | 98 | 1013.8 |
| 20260507103738 | 10 | 277 | 0.0 | 0.0 | 0.00 | 0.00 | 0.00 | 98 | 1013.7 |
| 20260507103234 | 10 | 277 | 0.0 | 1.6 | 0.00 | 0.00 | 0.00 | 98 | 1013.7 |
| 20260507102730 | 10 | 277 | 0.0 | 0.0 | 0.00 | 0.00 | 0.00 | 98 | 1013.6 |
| 20260507102227 | 10 | 277 | 0.0 | 0.0 | 0.00 | 0.00 | 0.00 | 98 | 1013.9 |
| 20260507101723 | 10 | 277 | 1.6 | 3.2 | 0.00 | 0.00 | 0.00 | 98 | 1013.9 |
| 20260507101213 | 10 | 277 | 0.0 | 0.0 | 0.00 | 0.00 | 0.00 | 98 | 1013.3 |
| 20260507100711 | 10 | 277 | 0.0 | 0.0 | 0.00 | 0.00 | 0.00 | 98 | 1013.6 |
| 20260507100209 | 10 | 277 | 0.0 | 1.6 | 0.00 | 0.00 | 0.00 | 98 | 1013.7 |
| 20260507095707 | 10 | 277 | 0.0 | 0.0 | 0.00 | 0.00 | 0.00 | 98 | 1013.6 |
| 20260507095203 | 10 | 277 | 0.0 | 0.0 | 0.00 | 0.00 | 0.00 | 98 | 1013.5 |
| 20260507094700 | 10 | 277 | 0.0 | 1.6 | 0.00 | 0.00 | 0.00 | 98 | 1013.7 |
| 20260507094156 | 10 | 277 | 1.6 | 1.6 | 0.00 | 0.00 | 0.00 | 98 | 1013.8 |
| 20260507093654 | 10 | 277 | 0.0 | 1.6 | 0.00 | 0.00 | 0.00 | 98 | 1013.8 |
| 20260507093153 | 10 | 277 | 0.0 | 0.0 | 0.00 | 0.00 | 0.00 | 98 | 1013.7 |
| 20260507092649 | 10 | 277 | 0.0 | 0.0 | 0.00 | 0.00 | 0.00 | 98 | 1013.9 |
| 20260507092145 | 10 | 277 | 0.0 | 0.0 | 0.00 | 0.00 | 0.00 | 99 | 1014.0 |
| 20260507091642 | 10 | 277 | 1.6 | 1.6 | 0.00 | 0.00 | 0.00 | 99 | 1013.9 |
| 20260507091138 | 10 | 277 | 1.6 | 1.6 | 0.00 | 0.00 | 0.00 | 99 | 1013.7 |
| 20260507090634 | 10 | 277 | 1.6 | 1.6 | 0.00 | 0.00 | 0.00 | 99 | 1013.9 |
| 20260507090132 | 10 | 277 | 1.6 | 3.2 | 0.00 | 0.00 | 0.00 | 99 | 1013.9 |
| 20260507085628 | 10 | 272 | 1.6 | 1.6 | 0.00 | 0.00 | 0.00 | 99 | 1013.9 |
| 20260507085125 | 10 | 272 | 0.0 | 1.6 | 0.00 | 0.00 | 0.00 | 99 | 1014.0 |
| 20260507084621 | 10 | 272 | 0.0 | 1.6 | 0.00 | 0.00 | 0.00 | 99 | 1013.6 |
| 20260507084118 | 10 | 272 | 0.0 | 0.0 | 0.00 | 0.00 | 0.00 | 99 | 1013.6 |
| 20260507083615 | 10 | 272 | 0.0 | 0.0 | 0.00 | 0.00 | 0.00 | 98 | 1013.8 |